Weather History for KOFK - December, 2012

Change the Weather History Date:

Monday, December 17, 2012

  Actual Average Record
Temperature  
Mean Temperature 25 °F 24 °F  
Max Temperature 29 °F 33 °F 66 °F (1980)
Min Temperature 20 °F 14 °F -15 °F (1981)
Degree Days  
Heating Degree Days 40 41  
Month to date heating degree days 516 670  
Since 1 July heating degree days 1939 2115  
Cooling Degree Days 0 0  
Month to date cooling degree days 0 0  
Year to date cooling degree days 1373 915  
Moisture  
Dew Point 24 °F    
Average Humidity 88    
Maximum Humidity 92    
Minimum Humidity 84    
Precipitation  
Precipitation 0.00 in 0.02 in 0.25 in (1908)
Month to date precipitation 0.62 0.46  
Year to date precipitation 13.99 27.12  
Snow  
Snow 0.00 in 0.10 in - ()
Month to date snowfall 0.5 3.4  
Since 1 July snowfall 0.5 8.3  
Snow Depth 0.00 in    
Sea Level Pressure  
Sea Level Pressure 29.67 in    
Wind  
Wind Speed 7 mph (SE)    
Max Wind Speed 17 mph    
Max Gust Speed 21 mph    
Visibility 4 miles    
Events Fog    
T = Trace of Precipitation, MM = Missing Value Source: NWS Daily Summary

Daily Weather History Graph

Daily Weather History Graph

Search for Another Location

Airport or City:

Trip Planner

Search our weather history database for the weather conditions in past years. The results will help you decide how hot, cold, wet, or windy it might be!

Date:

Astronomy

Dec. 17, 2012 Rise Set
Actual Time 7:52 AM CST 4:59 PM CST
Civil Twilight 7:20 AM CST 5:31 PM CST
Nautical Twilight 6:45 AM CST 6:06 PM CST
Astronomical Twilight 6:11 AM CST 6:40 PM CST
Moon 10:57 AM CST (12/17) 10:27 PM CST (12/17)
Length of Visible Light 10h 11m
Length of Day
9h 07m
Waxing Crescent, 25% of the Moon is Illuminated
Dec 17
Waxing Crescent
Dec 19
First Quarter
Dec 28
Full
Jan 4
Last Quarter
Jan 11
New

Hourly Weather History & Observations

Time (CST) Temp. Windchill Dew Point Humidity Pressure Visibility Wind Dir Wind Speed Gust Speed Precip Events Conditions
12:56 AM 25.0 °F 20.7 °F 21.9 °F 88% 29.78 in 5.0 mi SE 3.5 mph - N/A   Mostly Cloudy
1:56 AM 24.1 °F 18.2 °F 21.9 °F 91% 29.77 in 4.0 mi ESE 4.6 mph - N/A   Scattered Clouds
2:56 AM 26.1 °F 20.5 °F 23.0 °F 88% 29.74 in 5.0 mi SE 4.6 mph - N/A   Mostly Cloudy
3:27 AM 26.6 °F 17.5 °F 23.0 °F 86% 29.67 in 6.0 mi SE 9.2 mph - N/A   Scattered Clouds
3:56 AM 25.0 °F 17.1 °F 21.9 °F 88% 29.73 in 6.0 mi SSE 6.9 mph - N/A   Clear
4:56 AM 21.9 °F - 19.9 °F 92% 29.73 in 4.0 mi Calm Calm - N/A   Clear
5:56 AM 21.9 °F 17.2 °F 19.0 °F 89% 29.73 in 5.0 mi SW 3.5 mph - N/A   Clear
6:56 AM 21.9 °F 10.4 °F 19.0 °F 89% 29.74 in 10.0 mi WNW 11.5 mph - N/A   Partly Cloudy
7:10 AM 24.8 °F 14.6 °F 19.4 °F 80% 29.68 in 7.0 mi WNW 10.4 mph - N/A   Mostly Cloudy
7:56 AM 25.0 °F 14.8 °F 23.0 °F 92% 29.74 in 5.0 mi NW 10.4 mph - N/A   Overcast
8:56 AM 26.1 °F 15.6 °F 23.0 °F 88% 29.75 in 5.0 mi NW 11.5 mph - N/A   Overcast
9:56 AM 26.1 °F 15.6 °F 24.1 °F 92% 29.75 in 3.0 mi NNW 11.5 mph - N/A   Overcast
10:09 AM 26.6 °F 16.8 °F 24.8 °F 93% 29.69 in 3.0 mi NNW 10.4 mph - N/A   Overcast
10:41 AM 26.6 °F 17.5 °F 24.8 °F 93% 29.70 in 2.5 mi NW 9.2 mph - N/A   Overcast
10:49 AM 26.6 °F 17.5 °F 24.8 °F 93% 29.70 in 3.0 mi WNW 9.2 mph - N/A   Overcast
10:56 AM 26.1 °F 18.4 °F 24.1 °F 92% 29.76 in 4.0 mi NW 6.9 mph - N/A   Overcast
11:22 AM 26.6 °F 16.8 °F 24.8 °F 93% 29.69 in 6.0 mi NNW 10.4 mph - N/A   Overcast
11:56 AM 27.0 °F 19.5 °F 24.1 °F 89% 29.73 in 5.0 mi NNW 6.9 mph - N/A   Overcast
12:56 PM 27.0 °F 20.5 °F 24.1 °F 89% 29.72 in 7.0 mi WNW 5.8 mph - N/A   Overcast
1:56 PM 28.0 °F 22.8 °F 24.1 °F 85% 29.70 in 7.0 mi WNW 4.6 mph - N/A   Overcast
2:56 PM 28.0 °F - 25.0 °F 88% 29.68 in 10.0 mi Calm Calm - N/A   Overcast
3:56 PM 28.0 °F - 25.0 °F 88% 29.67 in 10.0 mi Calm Calm - N/A   Overcast
6:42 PM 26.6 °F 17.5 °F 24.8 °F 93% 29.60 in 4.0 mi SE 9.2 mph - N/A   Overcast
6:56 PM 27.0 °F 20.5 °F 25.0 °F 92% 29.66 in 4.0 mi SSE 5.8 mph - N/A   Overcast
7:11 PM 26.6 °F 18.2 °F 24.8 °F 93% 29.60 in 2.0 mi ESE 8.1 mph - N/A   Overcast
7:26 PM 26.6 °F 16.8 °F 24.8 °F 93% 29.59 in 1.5 mi SE 10.4 mph - N/A   Overcast
7:42 PM 26.6 °F 18.2 °F 24.8 °F 93% 29.59 in 2.0 mi SE 8.1 mph - N/A   Overcast
7:54 PM 26.6 °F 17.5 °F 24.8 °F 93% 29.59 in 1.5 mi SE 9.2 mph - N/A   Overcast
7:56 PM 26.1 °F 16.8 °F 25.0 °F 96% 29.65 in 1.5 mi SE 9.2 mph - N/A   Overcast
8:16 PM 26.6 °F 18.2 °F 24.8 °F 93% 29.60 in 0.8 mi ESE 8.1 mph - N/A   Overcast
8:24 PM 26.6 °F 18.2 °F 24.8 °F 93% 29.59 in 1.0 mi ESE 8.1 mph - N/A   Overcast
8:31 PM 26.6 °F 16.8 °F 24.8 °F 93% 29.59 in 0.8 mi ESE 10.4 mph - N/A   Overcast
8:43 PM 26.6 °F 17.5 °F 24.8 °F 93% 29.59 in 1.0 mi ESE 9.2 mph - N/A   Overcast
8:56 PM 26.1 °F 16.8 °F 24.1 °F 92% 29.64 in 0.5 mi ESE 9.2 mph - N/A Fog Light Freezing Fog
9:56 PM 26.1 °F 15.0 °F 25.0 °F 96% 29.62 in 0.5 mi SE 12.7 mph - N/A Fog Light Freezing Fog
10:56 PM 26.1 °F 15.0 °F 25.0 °F 96% 29.60 in 0.5 mi ESE 12.7 mph - N/A Fog Light Freezing Fog
11:56 PM 27.0 °F 15.2 °F 25.0 °F 92% 29.56 in 0.8 mi ESE 15.0 mph - N/A   Overcast